Regional Weather Roundup
Issued by NWS Green Bay, WI

Home | Current Version | Previous Version | Graphics & Text | Print | Product List | Glossary Off
Versions: 1 2 3 4 5 6 7 8 9 10 11 12 13 14 15 16 17 18 19 20 21 22 23 24 25 26 27 28 29 30 31 32 33 34 35 36 37 38 39 40 41 42 43 44 45 46 47 48 49 50

973
ASUS43 KGRB 162000
RWRGRB

NORTH-CENTRAL AND NORTHEAST WISCONSIN REGIONAL WEATHER ROUNDUP
NATIONAL WEATHER SERVICE GREEN BAY WI
200 PM CST MON JAN 16 2017

WIZ005-009-010>012-018-019-162100-
NORTH CENTRAL WISCONSIN

CITY           SKY/WX    TMP DP  RH WIND       PRES   REMARKS
IRONWOOD       SUNNY     37  20  50 CALM      30.08F
MANITOWISH WTR NOT AVBL
ARBOR VITAE    NOT AVBL
EAGLE RIVER    NOT AVBL
LAND O LAKES   NOT AVBL
RHINELANDER    CLOUDY    30  16  56 SW5       30.09F
PHILLIPS       CLOUDY    29  19  66 CALM      30.08F
ANTIGO         NOT AVBL
TOMAHAWK       NOT AVBL
MERRILL        CLOUDY    27  15  62 CALM        N/A
$$

WIZ013-073-162100-
NORTHEAST WISCONSIN

CITY           SKY/WX    TMP DP  RH WIND       PRES   REMARKS
IRON MOUNTAIN  CLOUDY    35  14  42 E3        30.09F
MARINETTE      NOT AVBL
$$

WIZ017-030-035>037-045-162100-
CENTRAL WISCONSIN

CITY           SKY/WX    TMP DP  RH WIND       PRES   REMARKS
MEDFORD        NOT AVBL
WAUSAU         CLOUDY    27  15  61 CALM      30.09F
MOSINEE        CLOUDY    28  18  64 NE5       30.11F
MARSHFIELD     CLOUDY    26  15  63 NE7       30.08F
WISC RAPIDS    CLOUDY    31  18  58 E6        30.11F
STEVENS POINT  NOT AVBL
WAUPACA        NOT AVBL
SHAWANO        NOT AVBL
CLINTONVILLE   CLOUDY    28  18  64 CALM      30.14F
WAUTOMA        MIX PCPN  31  25  78 NE9       30.12F
$$

WIZ038-039-048-051-162100-
FOX VALLEY

CITY           SKY/WX    TMP DP  RH WIND       PRES   REMARKS
NWS GREEN BAY  CLOUDY    34  23  64 CALM      30.15F
APPLETON       DRIZZLE   32  18  55 E3        30.13F
OSHKOSH        MIX PCPN  31  21  66 E5        30.13F
FOND DU LAC    MIX PCPN  35  26  69 E6        30.13F
$$

WIZ022-050-052-162100-
EAST CENTRAL WISCONSIN

CITY           SKY/WX    TMP DP  RH WIND       PRES   REMARKS
EPHRAIM        NOT AVBL
WASHINGTON ISL NOT AVBL
STURGEON BAY   CLOUDY    33  18  53 S3        30.17F
MANITOWOC      NOT AVBL
SHEBOYGAN      LGT RAIN  34  28  79 E6        30.15F
$$

LMZ563-521-522-541>543-162100-
LAKESHORE

STATION/POSITION TIME  TEMP    WIND        PRES    VSBY  WAVE
                       AIR SEA DIR/SP/G                  HT/PER
                 (UTC) (F)     (DEG/KT/KT) (MB)    (MI)  (FT/S)
SHEBOYGAN LKSHOR 1900   32      CALM  /  1 1022.7F
KEWAUNEE LKSHORE 1930   31      60/  3/  3 1021.5F
NORTHPORT PIER   1940   29      CALM  /  1 1021.3F
SISTER BAY LKSHO 1950   33     200/  5/  6   N/A
MENOMINEE LKSHOR 1930          170/ 10/ 12 1020.8F
$$




USA.gov is the U.S. government's official web portal to all federal, state and local government web resources and services.